Hourly Data Report for March 13, 2019

TORONTO CITY
ONTARIO
Current Station Operator: ECCC - MSC

43°40'00.000" N
79°24'00.000" W
112.50 m
6158355
71508
XTO

Download Data

Hourly Data (March 2019)
Hourly Data Report for March 13, 2019
TIME
LST
Temp Definition
°C
Dew Point Definition
°C
Rel Hum Definition
%
Precip. Amount Definition
mm

Wind Dir Definition
10's deg

Wind Spd Definition
km/h
Visibility Definition
km
Stn Press Definition
kPa
Hmdx Definition


Wind Chill Definition


Weather Definition


00:00 -0.4 -6.1 66 0.0 LegendMM LegendMM   101.06     LegendNANA
01:00 -0.4 -6.3 64 0.0 LegendMM LegendMM   101.00     LegendNANA
02:00 -0.3 -5.7 67 0.0 LegendMM LegendMM   101.01     LegendNANA
03:00 -0.3 -5.1 70 0.0 LegendMM LegendMM   100.94     LegendNANA
04:00 -0.2 -5.3 68 0.0 LegendMM LegendMM   100.92     LegendNANA
05:00 -0.3 -4.7 72 0.0 LegendMM LegendMM   100.91     LegendNANA
06:00 0.1 -4.6 71 0.0 LegendMM LegendMM   100.96     LegendNANA
07:00 0.4 -5.7 64 0.0 LegendMM LegendMM   100.92     LegendNANA
08:00 1.0 -5.5 62 0.0 LegendMM LegendMM   100.89     LegendNANA
09:00 1.2 -5.3 62 0.0 LegendMM LegendMM   100.77     LegendNANA
10:00 1.5 -4.5 64 0.0 LegendMM LegendMM   100.75     LegendNANA
11:00 2.0 -4.5 62 0.0 LegendMM LegendMM   100.73     LegendNANA
12:00 3.1 -4.2 59 0.0 LegendMM LegendMM   100.60     LegendNANA
13:00 3.0 -3.9 61 0.0 LegendMM LegendMM   100.52     LegendNANA
14:00 2.9 -3.0 65 0.0 LegendMM LegendMM   100.44     LegendNANA
15:00 2.8 -2.0 71 0.0 LegendMM LegendMM   100.38     LegendNANA
16:00 3.0 -1.8 71 0.0 LegendMM LegendMM   100.45     LegendNANA
17:00 2.6 -1.4 75 0.0 LegendMM LegendMM   100.47     LegendNANA
18:00 2.4 -1.1 77 0.0 LegendMM LegendMM   100.49     LegendNANA
19:00 2.4 -1.3 76 0.0 LegendMM LegendMM   100.50     LegendNANA
20:00 2.4 -0.8 79 0.0 LegendMM LegendMM   100.52     LegendNANA
21:00 2.5 -0.7 79 0.0 LegendMM LegendMM   100.52     LegendNANA
22:00 2.4 -0.4 82 0.0 LegendMM LegendMM   100.47     LegendNANA
23:00 2.5 -0.3 82 0.0 LegendMM LegendMM   100.42     LegendNANA

Notes on Data Quality.

Legend

  • E = Estimated
  • M = Missing
  • NA = Not Available*
  • [empty] = Indicates an unobserved value
Date modified: